www.pogodaiklimat.ru

Погода и климат >> Архив погоды >> Россия >> Приморский край >> Рудная Пристань


ПОГОДА в Рудной Пристани

  • Прогноз погоды в Рудной Пристани
  • Монитор погоды в Рудной Пристани
  • Климат города

АРХИВ ПОГОДЫ в Рудной Пристани

Время (UTC), дата Ветер
(напр.,м/с)
 
Видим.   Явления Облачность Т
(С)
Тd
(С)
f
(%)
Тe
(С)
Тes
(С)
Комфортность P
(гПа)
Po
(гПа)
Тmin
(С)
Tmax
(С)
R
(мм)
R24
(мм)
S
(см)
06 23.04 В 2 20 км 8/6 600 м
[Cb cap Ac trans]
+3.4 -1.0 73 +1 +3 1019.8 1015.5
09 23.04 В 1 20 км 10/6 300 м
[St As op]
+2.5 -0.8 79 +1 +1 1020.5 1016.3 +3.6
12 23.04 СВ 2 20 км 10/8 600 м
[Cb cap As op]
+2.5 -0.6 80 -1 -1 1022.0 1017.8
15 23.04 З 1 20 км 10/8 600 м
[Cb cap As op]
+2.3 -0.5 82 +1 +1 1022.6 1018.3
18 23.04 З 1 4000 м слабая морось {ливн. осадки} 10/10 300 м
[St]
+1.7 +0.9 94 -0 -0 1021.5 1017.2
21 23.04 Ю 1 4000 м слабый дождь {морось} 10/8 300 м
[Frnb As op]
+2.9 +2.4 97 +1 +1 1020.5 1016.2 +1.7 2
00 24.04 З 2 20 км {дождь, морось} 10/8 300 м
[St As op]
+5.0 +4.5 97 +2 +3 1021.6 1017.4
03 24.04 В 3 20 км 10/6 600 м
[St As trans]
+5.6 +3.7 88 +2 +4 1021.2 1017.0
06 24.04 В 2 1000 м дымка 10/8 300 м
[St As trans]
+4.6 +3.5 93 +2 +3 1020.7 1016.5
09 24.04 ЮВ 2 1000 м дымка 10/8 600 м
[Cb cap As op]
+3.4 +2.7 95 0 0 1020.5 1016.2 +5.8 1
12 24.04 штиль 0 1000 м дымка 10/8 300 м
[Cb cap As op]
+3.5 +3.1 97 +2 +2 1019.9 1015.6
15 24.04 ЮВ 1 1000 м дымка 10/8 300 м
[Cb cap As op]
+3.6 +3.2 97 +2 +2 1019.0 1014.7
18 24.04 СВ 4 1000 м слабая морось 10/6 300 м
[St As op]
+3.2 +2.8 97 -2 -2 1017.5 1013.3
21 24.04 В 2 4000 м в посл. час морось 10/8 300 м
[St As op]
+3.5 +3.1 97 0 0 1015.6 1011.4 +3.0 0.5
00 25.04 штиль 0
{10}
10 км {морось} 10/8 300 м
[St As op]
+4.8 +3.1 89 +4 +4 1013.8 1009.6
03 25.04 ЮЗ 1 10 км в посл. час ливневой дождь 10/8 300 м
[Cb cap As op]
+3.9 +3.3 96 +2 +3 1013.0 1008.8
06 25.04 В 2 20 км в посл. час ливневой дождь 6/6 300 м
[Cb cap]
+5.4 +3.8 89 +3 +7 1011.8 1007.6
09 25.04 В 2 20 км {ливн. осадки} 8/8 600 м
[Cb cap]
+4.3 +3.1 92 +1 +2 1012.7 1008.5 +5.6 1
12 25.04 З 1 20 км {ливн. осадки} 10/8 600 м
[Cb cap As op]
+3.7 +3.1 96 +2 +2 1013.5 1009.3
15 25.04 З 2 4000 м дымка 6/6 600 м
[Cb cap]
+2.0 +1.5 96 -1 -1 1013.1 1008.9
18 25.04 штиль 0 20 км 3/3 600 м
[Sc diur, vesp]
+0.7 +0.4 98 -1 -1 1011.9 1007.6
21 25.04 З 2 20 км ясно 0.0 -0.6 96 -4 -3 1011.3 1007.0 -0.7
00 26.04 З 3 20 км 3/3 600 м
[Cu hum]
+11.3 -0.2 45 +10 +16 1009.6 1005.5
03 26.04 Ю 7-11
{11}
20 км 8/8 600 м
[Cb cap Ci sp]
+9.5 -1.5 46 +6 +7 1008.3 1004.1
06 26.04 Ю 5
{11}
20 км в посл. час ливневой дождь 4/4 600 м
[Cb cap]
+10.7 +1.3 52 +8 +11 1006.0 1002.0
09 26.04 З 3
{11}
20 км {ливн. осадки} 9/8 600 м
[Cb cap Ac trans]
+7.4 +2.5 71 +5 +5 1006.0 1001.9 +13.3 0.3
12 26.04 З 2 20 км {ливн. осадки} 6/4 600 м
[Cb cap Ci fib]
+7.3 +1.5 67 +5 +5 1005.5 1001.4
15 26.04 З 2 20 км ясно +5.4 -0.3 67 +3 +3 1004.4 1000.2
18 26.04 З 1 20 км 4/0
[Ci sp]
+1.7 -0.9 83 0 0 1002.8 998.6
21 26.04 З 1 20 км 10/3 600 м
[Cb cap As op]
+1.0 -0.4 90 -1 -1 1001.8 997.6 +0.7
00 27.04 Ю 2 20 км 8/4 600 м
[Cb cap Ac trans Ci fib]
+7.9 +2.4 68 +6 +10 1000.8 996.7
03 27.04 В 3 20 км в посл. час ливневой дождь 9/8 600 м
[Cb cap Ac trans]
+6.9 +2.7 75 +4 +6 1000.4 996.3
06 27.04 В 3 20 км {ливн. осадки} 8/6 600 м
[Cb cap Ac trans]
+4.6 +3.0 89 +1 +3 1000.7 996.6
09 27.04 В 1 20 км {ливн. осадки} 9/8 600 м
[Cb cap Ac trans]
+3.3 +2.4 94 +2 +2 1001.3 997.1 +10.4 2
12 27.04 З 1 20 км {ливн. осадки} 3/3 600 м
[Sc diur, vesp]
+2.6 +1.8 94 +1 +1 1002.2 998.0
15 27.04 СЗ 3 20 км ясно +2.0 +1.5 96 -2 -2 1002.0 997.8
18 27.04 З 2 20 км 3/3 600 м
[Sc]
-0.1 -0.6 96 -4 -4 1001.2 997.0
21 27.04 З 2 20 км 8/3 600 м
[Sc Ac trans Ci sp]
+0.2 -0.3 96 -4 -3 1000.7 996.5 -1.0 0.4
00 28.04 В 2 20 км 8/4 600 м
[Cb cap Ac trans Ci fib]
+4.1 +2.4 89 +1 +5 1000.9 996.8
03 28.04 В 3 20 км 8/6 600 м
[Cb cap Ci sp]
+7.0 +2.6 74 +4 +9 999.6 995.5
06 28.04 В 1 20 км 9/6 600 м
[Cb cap Ac trans]
+7.9 +3.9 76 +7 +10 999.3 995.2
09 28.04 В 1 20 км {ливн. осадки} 8/6 600 м
[Cb cap Ac trans]
+5.3 +3.2 86 +4 +4 998.8 994.6 +8.9
12 28.04 штиль 0 20 км 3/3 600 м
[Sc diur, vesp]
+4.0 +2.8 92 +3 +3 999.9 995.7
15 28.04 СЗ 3 20 км ясно +4.2 +2.7 90 0 0 1000.6 996.4
18 28.04 ЮЗ 3 20 км ясно +0.2 -0.6 94 -5 -5 1000.4 996.2
21 28.04 СЗ 3 20 км ясно +3.4 +0.4 81 -0 0 1000.4 996.2 -0.5
00 29.04 В 1 20 км 9/8 600 м
[Cb cap Ci fib]
+9.0 +2.2 62 +9 +11 1000.0 995.9
03 29.04 СВ 2 20 км 8/3 600 м
[Sc diur, vesp Ci sp]
+6.8 +2.4 74 +5 +15 опасность
простуды
998.7 994.6
06 29.04 В 3 20 км {ливн. осадки} 10/4 600 м
[Cb cap Ac trans Ci sp]
+6.4 +2.9 78 +3 +6 997.5 993.4
09 29.04 З 1 20 км 10/6 300 м
[Cb cap As op]
+5.8 +3.1 83 +5 +5 997.4 993.3 +9.7 0.3
12 29.04 СЗ 1 20 км 10/6 600 м
[Cb cap As trans]
+5.6 +3.3 85 +4 +4 997.1 993.0
15 29.04 В 2 20 км в посл. час ливневой дождь 10/8 600 м
[Cb cap As op]
+5.0 +3.2 88 +2 +2 997.8 993.7
18 29.04 ЮВ 2 20 км {ливн. осадки} 10/6 600 м
[Cb cap As trans]
+5.5 +4.9 96 +3 +3 995.8 991.6
21 29.04 СВ 1 20 км 10/3 600 м
[Cb cap As op]
+6.1 +4.8 91 +5 +5 994.7 990.6 +4.3 0.0
00 30.04 В 3 20 км 10/6 300 м
[Cb cap As trans]
+6.6 +4.1 84 +4 +5 994.1 990.0

 

Местоположение метеостанции Рудная Пристань (Приморский край, Россия): широта 44.37 долгота 135.80 высота над уровнем моря 34 м.

В архиве по умолчанию представлена погода в Рудной Пристани за последнюю неделю. Архивные данные за месяц целиком и за предыдущие месяцы, начиная с января 2011 года, Вы можете получить, выбрав интересующий диапазон дат из раскрывающегося списка и нажав кнопку "Ввод!".

Внимание! Время в таблицах - всемирное. Для получения местного времени необходимо прибавить поправку, которая в Рудной Пристани равна 10 ч.

Смотрите также архив погоды в соседних городах и на ближайших метеорологических станциях:

Погода в Богополе (Приморский край, Россия) (35 км)
Погода в Кавалерово (Приморский край, Россия) (65 км)
Погода в Ольге (Приморский край, Россия) (80 км)
Погода в Тернее (Приморский край, Россия) (94 км)
Погода в Мельничном (Приморский край, Россия) (122 км)
Погода в Малой Кеме (Приморский край, Россия) (154 км)
Погода в Чугуевке (Приморский край, Россия) (161 км)
Погода в Малиново (Приморский край, Россия) (172 км)
Погода в Глубинном (Приморский край, Россия) (193 км)
Погода в Лазо (Приморский край, Россия) (193 км)

Пояснения к столбцам:

Ветер - указаны скорость ветра в м/с - средняя за 10 мин, порывы в срок и между сроками (в фигурных скобках) и направление, откуда дует ветер: С - северный, СВ - северо-восточный, В - восточный, ЮВ - юго-восточный, Ю - южный, ЮЗ - юго-западный, З - западный, СЗ - северо-западный.
Видимость - горизонтальная дальность видимости в метрах или километрах. При видимости от 1 до 10 км при отсутствии осадков обычно наблюдается дымка, при ухудшении видимости до 1 км и менее - туман. В сухую погоду видимость может ухудшаться дымом, пылью или мглою.
Явления - указаны атмосферные явления, наблюдавшиеся в срок или в последний час перед сроком; фигурными скобками обозначены явления, наблюдавшиеся между сроками (за 1-3 часа до срока); квадратными скобками обозначены град или гололедные отложения с указанием их диаметра в мм.
Облачность - указаны через наклонную черту общая и нижняя облачность в баллах и высота нижней границы облаков в метрах; квадратными скобками обозначены формы облаков: Ci - перистые, Cs - перисто-слоистые, Cc - перисто-кучевые, Ac - высококучевые, As - высокослоистые, Sc - слоисто-кучевые, Ns - слоисто-дождевые, Cu - кучевые, Cb - кучево-дождевые. Подробнее классификацию облаков см. в Атласе облаков (PDF).
T - Температура воздуха - температура, измеренная на высоте 2 м над землей.
Td - Температура точки росы - температура, при понижении до которой содержащийся в воздухе водяной пар достигнет насыщения.
f - Относительная влажность воздуха - влажноcть воздуха, измеренная на высоте 2 м над землей.
Te - Эффективная температура - температура, которую ощущает одетый по сезону человек в тени. Характеристика душности погоды. При расчете учитывается влияние влажности воздуха и скорости ветра на теплоощущения человека.
Tes - Эффективная температура на солнце - температура, которую ощущает человек, с поправкой на солнечный нагрев. Характеристика знойности погоды. Зависит от высоты солнца над горизонтом, облачности и скорости ветра. Ночью, в пасмурную погоду, а также при ветре 12 м/с и более поправка равна нулю.
P - Атмосферное давление - приведенное к уровню моря атмосферное давление.
Po - Атмосферное давление - измеренное на уровне метеостанции атмосферное давление.
Tmin - Минимальная температура - минимум температуры воздуха на высоте 2 м над землей.
Tmax - Максимальная температура - максимум температуры воздуха на высоте 2 м над землей.
R - Количество осадков - Количество выпавших осадков за период времени, мм. При наведении курсора мыши на число - период времени, за который выпало указанное количество осадков.
R24 - Количество осадков - Количество выпавших осадков за 24 часа, мм.
S - Снежный покров - Высота снежного покрова, см. При наведении курсора мыши на число - состояние снежного покрова и степень покрытия местности в баллах.